Weather reports worldwide

Advertisment
Magdeburg, Germany (10361): temperature & dewpoint: 16.01.2019 04:00:00 - 22.01.2019 04:00:00 (CET)Magdeburg, Germany (10361): temperature 5cm & temperature -5cm: 16.01.2019 04:00:00 - 22.01.2019 04:00:00 (CET)Magdeburg, Germany (10361): temperature -20cm & temperature -100cm: 16.01.2019 04:00:00 - 22.01.2019 04:00:00 (CET)Magdeburg, Germany (10361): wind speed & gusts: 16.01.2019 04:00:00 - 22.01.2019 04:00:00 (CET)Magdeburg, Germany (10361): wind direction: 16.01.2019 04:00:00 - 22.01.2019 04:00:00 (CET)Magdeburg, Germany (10361): reduced air pressure: 16.01.2019 04:00:00 - 22.01.2019 04:00:00 (CET)Magdeburg, Germany (10361): visibility: 16.01.2019 04:00:00 - 22.01.2019 04:00:00 (CET)Magdeburg, Germany (10361): sunshine duration: 16.01.2019 04:00:00 - 22.01.2019 04:00:00 (CET)Magdeburg, Germany (10361): precipitation: 16.01.2019 04:00:00 - 22.01.2019 04:00:00 (CET)
Date & Time tt [°C] td [°C] tt 5cm [°C] tt -5cm [°C] tt -20cm [°C] tt -100cm [°C] ff [km/h] ff [kn] fx [km/h] fx [kn] dd ppp [hPa] vv [km] sd [min] rr [mm]
22.01.2019 04:00:00 -2,5 -5,4 -3,3 -0,9 1,1 6,5 5 3 8 5 S 1016,1 10 0 0,0
22.01.2019 03:00:00 -2,5 -5,5 -3,2 -0,9 1,1 6,5 4 2 11 6 SSW 1017,0 10 0 0,0
22.01.2019 02:00:00 -2,6 -4,9 -3,0 -0,9 1,1 6,5 4 2 11 6 S 1017,5 8 0 0,0
22.01.2019 01:00:00 -2,7 -5,2 -3,0 -1,1 1,1 6,5 5 3 13 7 SSW 1018,0 7 0 0,0
22.01.2019 00:00:00 -3,3 -5,1 -3,3 -1,3 1,1 6,5 4 2 8 4 SSW 1018,4 4,3 0 0,0
21.01.2019 23:00:00 -3,9 -5,5 -4,3 -1,9 1,1 6,5 5 3 9 5 S 1018,7 4,4 0 0,0
21.01.2019 22:00:00 -4,2 -5,6 -7,0 -2,1 1,1 6,5 6 4 11 6 SSW 1019,1 4,8 0 0,0
21.01.2019 21:00:00 -3,7 -5,3 -5,7 -1,6 1,2 6,5 3 1 10 5 E 1019,5 3,9 0 0,0
21.01.2019 20:00:00 -2,8 -4,8 -3,9 -1,4 1,2 6,5 7 4 10 6 SW 1019,4 5 0 0,0
21.01.2019 19:00:00 -3,6 -4,4 -5,5 -1,3 1,2 6,5 6 4 8 4 S 1019,7 1,6 0 0,0
21.01.2019 18:00:00 -3,5 -4,4 -5,8 -0,7 1,2 6,5 4 2 6 3 S 1020,1 1,7 0 0,0
21.01.2019 17:00:00 -2,3 -3,8 -4,5 -0,2 1,2 6,5 0 0 10 5 N 1020,4 2,8 14 0,0
21.01.2019 16:00:00 -1,3 -3,6 -1,7 -0,1 1,2 6,5 6 3 10 6 SSE 1020,5 3,4 60 0,0
21.01.2019 15:00:00 -1,7 -3,9 -1,3 -0,2 1,2 6,5 5 3 11 6 SSE 1021,1 3,4 60 0,0
21.01.2019 14:00:00 -1,9 -3,9 -1,3 -0,2 1,2 6,6 6 3 16 8 SSE 1021,9 2,7 60 0,0
21.01.2019 13:00:00 -2,8 -4,3 -2,0 -0,3 1,2 6,6 7 4 13 7 SSE 1022,4 2,8 60 0,0
21.01.2019 12:00:00 -4,0 -6,0 -2,8 -0,6 1,2 6,6 5 3 10 6 S 1023,4 3,9 60 0,0
21.01.2019 11:00:00 -4,9 -6,5 -3,8 -1,2 1,3 6,6 2 1 10 5 SE 1024,2 4,2 60 0,0
21.01.2019 10:00:00 -6,6 -7,8 -6,3 -1,7 1,3 6,6 6 4 15 8 S 1024,1 2,4 2 0,0
21.01.2019 09:00:00 -7,3 -8,2 -7,1 -1,6 1,3 6,6 6 4 13 7 S 1024,2 0,6 0 0,0
21.01.2019 08:00:00 -7,0 -7,8 -6,9 -1,5 1,3 6,6 6 3 14 7 SSE 1024,2 0,2 0 0,0
21.01.2019 07:00:00 -6,6 -7,5 -6,2 -1,2 1,3 6,6 5 3 9 5 S 1024,1 0,1 0 0,0
21.01.2019 06:00:00 -6,4 -7,2 -6,1 -1,2 1,4 6,6 3 1 7 4 ENE 1024,3 0,1 0 0,0
21.01.2019 05:00:00 -6,2 -7,1 -6,0 -1,1 1,4 6,6 3 1 7 4 E 1024,2 0,2 0 0,0
21.01.2019 04:00:00 -6,2 -7,0 -6,0 -1,1 1,4 6,6 3 2 8 4 S 1024,2 0,2 0 0,0
21.01.2019 03:00:00 -5,7 -6,6 -5,4 -1,0 1,4 6,6 2 1 6 3 SSE 1024,3 0,1 0 0,0
21.01.2019 02:00:00 -5,3 -6,2 -5,0 -0,9 1,5 6,6 2 1 6 4 SSE 1024,2 0,2 0 0,0
21.01.2019 01:00:00 -5,1 -5,7 -4,9 -0,9 1,5 6,6 2 1 8 4 NE 1024,3 0,1 0 0,0
21.01.2019 00:00:00 -5,3 -6,1 -5,0 -1,0 1,5 6,6 5 3 9 5 NNE 1024,3 0,1 0 0,0
20.01.2019 23:00:00 -5,7 -6,3 -5,7 -1,2 1,5 6,6 5 3 10 5 N 1024,0 0,2 0 0,0
20.01.2019 22:00:00 -5,2 -6,4 -7,8 -1,1 1,5 6,6 4 2 8 5 N 1023,3 2,9 0 0,0
20.01.2019 21:00:00 -5,4 -6,4 -7,2 -0,9 1,6 6,7 4 2 5 3 NW 1022,7 4,0 0 0,0
20.01.2019 20:00:00 -4,8 -6,0 -7,0 -0,7 1,6 6,7 4 2 7 4 NW 1022,3 4,2 0 0,0
20.01.2019 19:00:00 -4,2 -5,7 -6,2 -0,3 1,6 6,7 2 1 4 2 NW 1021,7 5 0 0,0
20.01.2019 18:00:00 -2,6 -5,1 -5,9 0,0 1,6 6,7 3 2 4 2 NNE 1021,3 10 0 0,0
20.01.2019 17:00:00 -1,6 -4,9 -4,9 0,0 1,6 6,7 3 2 8 5 ENE 1020,7 11 13 0,0
20.01.2019 16:00:00 0,2 -5,1 -0,5 0,0 1,6 6,7 3 1 11 6 E 1020,3 13 60 0,0
20.01.2019 15:00:00 0,6 -4,9 0,7 -0,1 1,6 6,7 4 2 16 9 E 1019,8 14 60 0,0
20.01.2019 14:00:00 0,2 -5,9 -0,1 -0,1 1,6 6,7 6 3 13 7 E 1019,7 15 60 0,0
20.01.2019 13:00:00 -0,5 -6,3 0,0 -0,1 1,7 6,7 4 2 12 7 ENE 1019,9 12 60 0,0
20.01.2019 12:00:00 -0,9 -5,8 -1,8 -0,2 1,7 6,7 5 3 8 5 SSE 1019,8 11 60 0,0
20.01.2019 11:00:00 -2,5 -6,2 -3,0 -0,4 1,7 6,7 4 2 9 5 E 1019,7 11 60 0,0
20.01.2019 10:00:00 -4,2 -6,1 -4,6 -0,7 1,7 6,7 2 1 6 3 ENE 1019,3 9 60 0,0
20.01.2019 09:00:00 -6,5 -8,1 -8,5 -0,7 1,8 6,7 3 1 6 4 ENE 1018,8 9 7 0,0
20.01.2019 08:00:00 -7,1 -8,6 -9,0 -0,4 1,8 6,7 3 2 8 4 ENE 1018,2 9 0 0,0
20.01.2019 07:00:00 -7,0 -8,1 -9,1 -0,2 1,8 6,7 4 2 8 4 ENE 1017,8 8 0 0,0
20.01.2019 06:00:00 -6,7 -7,9 -8,7 0,0 1,8 6,7 3 1 6 3 NE 1017,8 7 0 0,0
20.01.2019 05:00:00 -6,2 -7,5 -8,2 0,1 1,8 6,7 3 2 6 3 ENE 1017,7 8 0 0,0
20.01.2019 04:00:00 -5,4 -6,6 -7,6 0,1 1,9 6,8 4 2 6 4 E 1017,7 8 0 0,0
20.01.2019 03:00:00 -4,9 -6,0 -7,3 0,1 1,9 6,8 4 2 9 5 E 1017,7 8 0 0,0
20.01.2019 02:00:00 -4,5 -5,5 -6,9 0,1 1,9 6,8 4 2 12 7 E 1017,9 7 0 0,0
20.01.2019 01:00:00 -3,4 -4,4 -6,1 0,2 1,9 6,8 6 3 10 5 E 1018,1 6 0 0,0
20.01.2019 00:00:00 -3,4 -4,3 -5,7 0,2 1,9 6,8 5 3 9 5 ENE 1018,4 7 0 0,0
19.01.2019 23:00:00 -2,8 -3,8 -5,4 0,2 1,9 6,8 5 3 9 5 ENE 1018,4 7 0 0,0
19.01.2019 22:00:00 -2,7 -3,7 -5,0 0,2 1,9 6,8 5 3 8 5 ENE 1018,5 6 0 0,0
19.01.2019 21:00:00 -2,0 -3,2 -4,5 0,3 1,9 6,8 5 3 9 5 ENE 1018,6 7 0 0,0
19.01.2019 20:00:00 -1,1 -2,7 -4,0 0,3 1,9 6,8 4 2 11 6 E 1018,7 7 0 0,0
19.01.2019 19:00:00 -0,5 -2,5 -2,7 0,3 2,0 6,8 5 3 10 6 E 1018,8 8 0 0,0
19.01.2019 18:00:00 -0,3 -2,6 -3,1 0,3 2,0 6,8 5 3 10 5 ENE 1019,0 12 0 0,0
19.01.2019 17:00:00 0,5 -2,9 -2,1 0,3 2,0 6,8 4 2 10 5 E 1019,0 22 0 0,0
19.01.2019 16:00:00 1,4 -2,7 0,0 0,3 2,0 6,8 5 3 12 6 SE 1019,2 19 5 0,0
19.01.2019 15:00:00 2,3 -2,9 1,6 0,4 2,0 6,8 5 3 14 7 SE 1019,5 27 44 0,0
19.01.2019 14:00:00 2,4 -3,0 2,1 0,4 2,0 6,8 6 3 15 8 SSE 1019,9 21 60 0,0
19.01.2019 13:00:00 1,7 -2,3 1,4 0,3 2,1 6,8 5 3 11 6 SE 1020,4 21 60 0,0
19.01.2019 12:00:00 1,1 -3,1 1,1 0,3 2,1 6,8 6 4 11 6 S 1020,8 19 60 0,0
19.01.2019 11:00:00 1,0 -2,4 -0,6 0,3 2,1 6,8 2 1 5 3 SSE 1021,1 25 60 0,0
19.01.2019 10:00:00 -1,4 -3,3 -2,6 0,3 2,1 6,8 3 1 7 4 SE 1021,3 20 14 0,0
19.01.2019 09:00:00 -2,6 -4,1 -4,0 0,3 2,1 6,8 3 1 5 3 WNW 1021,1 22 0 0,0
19.01.2019 08:00:00 -2,8 -4,0 -4,9 0,3 2,1 6,8 4 2 8 4 WSW 1020,8 24 0 0,0
19.01.2019 07:00:00 -2,5 -3,3 -5,0 0,3 2,1 6,8 4 2 6 3 SSW 1020,8 21 0 0,0
19.01.2019 06:00:00 -2,0 -3,1 -4,3 0,3 2,2 6,8 4 2 8 5 SW 1020,7 23 0 0,0
19.01.2019 05:00:00 -1,4 -2,8 -3,7 0,3 2,2 6,9 3 2 9 5 SW 1020,8 24 0 0,0
19.01.2019 04:00:00 0,3 -2,5 -1,0 0,3 2,2 6,9 4 2 7 4 SW 1020,8 36 0 0,0
19.01.2019 03:00:00 0,5 -2,4 -0,6 0,4 2,2 6,9 4 2 10 5 SW 1021,0 25 0 0,0
19.01.2019 02:00:00 0,7 -2,2 -0,3 0,4 2,2 6,9 7 4 13 7 W 1021,0 38 0 0,0
19.01.2019 01:00:00 0,7 -2,3 -0,2 0,4 2,3 6,9 6 3 11 6 SW 1021,2 34 0 0,0
19.01.2019 00:00:00 0,9 -2,2 -0,4 0,4 2,3 6,9 5 3 9 5 WSW 1021,1 36 0 0,0
18.01.2019 23:00:00 0,7 -2,0 -0,5 0,4 2,3 6,9 2 1 13 7 ESE 1021,1 26 0 0,0
18.01.2019 22:00:00 1,1 -2,5 0,1 0,4 2,3 6,9 8 4 16 9 W 1021,0 40 0 0,0
18.01.2019 21:00:00 0,9 -2,4 -0,2 0,4 2,4 6,9 6 4 13 7 W 1020,6 49 0 0,0
18.01.2019 20:00:00 0,5 -2,7 -2,7 0,4 2,4 6,9 5 3 20 11 WSW 1020,3 42 0 0,0
18.01.2019 19:00:00 1,5 -2,7 -0,3 0,4 2,4 6,9 11 6 20 11 W 1020,0 61 0 0,0
18.01.2019 18:00:00 1,8 -2,6 0,2 0,4 2,5 6,9 11 6 23 12 W 1020,0 54 0 0,0
18.01.2019 17:00:00 1,5 -2,6 -0,2 0,4 2,5 6,9 11 6 22 12 W 1019,7 50 12 0,0
18.01.2019 16:00:00 2,4 -2,7 1,2 0,5 2,5 6,9 10 5 22 12 W 1019,4 64 60 0,0
18.01.2019 15:00:00 3,0 -3,1 2,6 0,5 2,5 6,9 11 6 24 13 WSW 1019,1 52 60 0,0
18.01.2019 14:00:00 2,7 -3,5 2,7 0,8 2,5 6,9 14 7 25 14 W 1019,0 29 60 0,0
18.01.2019 13:00:00 1,8 -4,1 1,7 0,7 2,6 6,9 13 7 28 15 W 1019,3 39 60 0,0
18.01.2019 12:00:00 1,1 -4,0 1,0 0,6 2,6 6,9 13 7 24 13 W 1019,0 22 60 0,0
18.01.2019 11:00:00 0,0 -4,0 -0,4 0,5 2,7 6,9 8 5 21 11 WSW 1018,9 28 60 0,0
18.01.2019 10:00:00 -1,0 -4,4 -1,9 0,5 2,7 6,9 9 5 17 9 W 1018,2 50 60 0,0
18.01.2019 09:00:00 -1,9 -4,5 -4,0 0,5 2,8 6,9 9 5 22 12 WNW 1017,4 55 6 0,0
18.01.2019 08:00:00 -1,8 -4,5 -3,8 0,5 2,8 6,9 12 7 22 12 WNW 1016,2 56 0 0,0
18.01.2019 07:00:00 -1,5 -4,5 -3,4 0,5 2,9 6,9 11 6 25 13 WNW 1015,0 57 0 0,0
18.01.2019 06:00:00 -1,2 -4,4 -3,0 0,5 3,0 6,9 8 5 29 15 NW 1013,7 53 0 0,0
18.01.2019 05:00:00 0,2 -2,9 -0,5 0,6 3,0 6,9 11 6 30 16 NW 1012,5 40 0 0,0
18.01.2019 04:00:00 0,3 -1,6 -0,4 0,6 3,1 6,9 10 5 22 12 NW 1011,0 70 0 0,0
18.01.2019 03:00:00 -0,2 -1,3 -0,8 0,6 3,2 6,9 8 4 35 19 NNW 1009,6 70 0 1,2
18.01.2019 02:00:00 1,7 -1,8 0,8 0,7 3,3 6,9 19 11 36 20 W 1007,5 37 0 0,0
18.01.2019 01:00:00 1,7 -1,8 0,9 0,7 3,4 6,9 16 8 38 20 W 1006,6 63 0 0,0
18.01.2019 00:00:00 2,0 -1,1 1,1 0,8 3,6 6,9 20 11 48 26 W 1005,7 65 0 0,0
17.01.2019 23:00:00 1,9 -1,1 0,8 0,8 3,7 6,9 19 10 41 22 W 1004,6 65 0 0,0
17.01.2019 22:00:00 1,7 -0,7 0,1 1,0 3,9 6,9 21 11 38 20 W 1003,8 63 0 0,0
17.01.2019 21:00:00 1,9 0,2 0,5 1,7 4,0 6,9 23 12 45 25 W 1003,0 54 0 0,2
17.01.2019 20:00:00 2,3 1,0 1,5 1,9 4,2 6,9 16 9 36 20 W 1002,2 11 0 0,0
17.01.2019 19:00:00 1,8 0,5 0,8 1,7 4,3 6,9 17 9 32 17 W 1000,9 26 0 0,0
17.01.2019 18:00:00 1,3 0,5 0,2 1,8 4,4 6,9 10 6 28 15 W 1000,0 17 0 3,5
17.01.2019 17:00:00 2,9 1,5 2,2 4,1 4,4 6,9 9 5 31 17 WNW 999,0 3,1 0 1,9
17.01.2019 16:00:00 6,5 1,5 5,2 4,8 4,3 6,9 6 4 23 12 SW 998,4 70 7 0,0
17.01.2019 15:00:00 6,8 0,4 5,5 5,0 4,2 6,9 12 6 35 19 SW 999,0 70 9 0,0
17.01.2019 14:00:00 6,9 -0,5 6,1 5,5 4,0 6,9 19 11 40 21 WSW 999,5 70 32 0,0
17.01.2019 13:00:00 7,2 0,6 7,4 5,4 3,9 6,9 21 11 36 19 WSW 999,9 43 60 0,0
17.01.2019 12:00:00 5,8 1,1 4,9 4,0 3,8 6,9 15 8 24 13 WSW 1000,8 66 0 0,0
17.01.2019 11:00:00 5,8 1,1 5,0 3,8 3,8 6,9 14 8 26 14 WSW 1001,0 70 7 0,0
17.01.2019 10:00:00 4,9 1,6 3,7 2,9 3,8 6,9 12 6 25 14 WSW 1000,9 51 0 0,0
17.01.2019 09:00:00 4,9 1,7 3,6 2,9 3,7 6,9 12 6 31 17 WSW 1000,7 70 0 0,0
17.01.2019 08:00:00 5,3 1,7 4,1 3,1 3,7 6,9 16 9 30 16 WSW 1000,1 70 0 0,0
17.01.2019 07:00:00 5,5 1,5 4,6 3,1 3,7 6,9 16 8 31 17 WSW 1000,0 70 0 0,0
17.01.2019 06:00:00 5,5 1,3 4,3 2,8 3,7 6,9 15 8 30 16 SW 999,8 47 0 0,0
17.01.2019 05:00:00 5,0 1,4 3,9 2,6 3,7 6,9 10 6 26 14 SW 999,6 40 0 0,0
17.01.2019 04:00:00 4,9 0,7 3,9 2,2 3,8 6,9 17 9 28 15 SW 999,3 33 0 0,0
17.01.2019 03:00:00 3,8 0,0 2,6 1,6 3,9 6,9 11 6 17 9 SW 999,6 31 0 0,0
17.01.2019 02:00:00 3,6 -0,1 1,3 1,4 4,0 6,9 8 5 27 14 WSW 1000,2 33 0 0,0
17.01.2019 01:00:00 4,1 0,1 2,3 1,5 4,2 6,9 12 6 20 11 SW 1000,5 40 0 0,0
17.01.2019 00:00:00 3,6 0,0 1,7 1,6 4,3 6,9 10 5 19 10 SSW 1001,2 30 0 0,0
16.01.2019 23:00:00 3,6 0,1 1,9 2,1 4,5 6,9 12 7 22 12 SSW 1002,1 28 0 0,0
16.01.2019 22:00:00 4,1 0,2 2,4 2,6 4,6 6,9 10 5 22 12 SW 1002,9 34 0 0,0
16.01.2019 21:00:00 4,6 0,3 3,1 3,2 4,6 6,9 13 7 19 11 SSW 1003,5 39 0 0,0
16.01.2019 20:00:00 4,9 0,5 3,6 3,6 4,7 6,9 9 5 25 13 SSW 1004,3 33 0 0,0
16.01.2019 19:00:00 5,2 0,9 4,1 4,0 4,8 6,9 16 9 24 13 SW 1005,0 43 0 0,0
16.01.2019 18:00:00 5,6 1,4 4,6 4,3 4,8 6,9 15 8 32 17 SSW 1005,7 39 0 0,0
16.01.2019 17:00:00 6,3 1,9 5,2 4,8 4,7 6,9 18 10 30 16 SW 1005,9 51 0 0,0
16.01.2019 16:00:00 6,9 2,8 6,1 5,4 4,7 6,9 11 6 33 18 SSW 1006,4 68 0 0,0
16.01.2019 15:00:00 7,3 3,1 6,5 5,7 4,6 6,9 15 8 26 14 SW 1006,8 70 0 0,0
16.01.2019 14:00:00 7,6 3,5 7,2 5,9 4,5 6,9 9 5 26 14 SSW 1007,1 70 0 0,0
16.01.2019 13:00:00 7,6 3,4 6,9 5,6 4,4 6,9 15 8 29 16 SW 1008,0 70 0 0,0
16.01.2019 12:00:00 7,5 3,1 6,8 5,3 4,3 6,9 13 7 24 13 SW 1008,8 70 0 0,0
16.01.2019 11:00:00 7,3 3,3 6,6 5,1 4,3 6,9 13 7 29 15 SW 1009,4 54 0 0,0
16.01.2019 10:00:00 7,1 3,3 6,3 4,7 4,2 6,9 17 9 32 18 SW 1009,7 45 0 0,0
16.01.2019 09:00:00 7,1 3,2 6,1 4,4 4,2 6,9 18 10 32 17 WSW 1009,5 58 0 0,0
16.01.2019 08:00:00 6,7 3,3 5,7 4,3 4,2 6,9 13 7 22 12 WSW 1009,6 35 0 0,0
16.01.2019 07:00:00 6,5 3,2 5,5 4,2 4,2 6,9 14 7 33 18 WSW 1009,9 22 0 0,0
16.01.2019 06:00:00 6,5 2,9 5,6 4,1 4,2 7,0 15 8 31 17 W 1010,2 30 0 0,0
16.01.2019 05:00:00 5,9 3,2 4,2 4,0 4,1 7,0 15 8 43 23 WSW 1010,5 19 0 0,0
16.01.2019 04:00:00 6,5 3,6 5,7 4,6 4,1 7,0 21 12 44 24 W 1011,0 16 0 0,0

tt = temperature
td = dewpoint
tt 5cm = temperature 5cm
tt -5cm = temperature -5cm
tt -20cm = temperature -20cm
tt -100cm = temperature -100cm
ff = wind speed
fx = gusts
dd = wind direction
ppp = reduced air pressure
vv = visibility
sd = sunshine duration
rr = precipitation

Next stations